Location: Kuffner-Sternwarte
(48.2130°N, 16.2960°E)
Time: 09:39:44
(UTC+01:00)

ISS - Visible Passes

Search period start: 25 January 2021 00:00
Search period end: 04 February 2021 00:00
Orbit: 418 x 421 km, 51.6° (Epoch: 25 January)

Date Brightness Start Highest point End Pass type
(mag) Time Alt. Az. Time Alt. Az. Time Alt. Az.
25 Jan -3.6 17:58:49 10° W 18:02:11 64° NNW 18:04:02 24° ENE visible
25 Jan -0.9 19:36:01 10° WNW 19:37:00 17° WNW 19:37:00 17° WNW visible
26 Jan -3.7 17:11:23 10° WSW 17:14:47 83° NNW 17:18:11 10° ENE visible
26 Jan -3.0 18:48:34 10° WNW 18:51:35 43° NNW 18:51:35 43° NNW visible
27 Jan -3.2 18:01:05 10° W 18:04:23 47° N 18:06:09 23° ENE visible
27 Jan -0.9 19:38:10 10° WNW 19:39:07 17° WNW 19:39:07 17° WNW visible
28 Jan -3.1 18:50:46 10° WNW 18:53:41 46° NNW 18:53:41 46° NNW visible
29 Jan -3.2 18:03:18 10° WNW 18:06:35 45° N 18:08:17 24° ENE visible
29 Jan -1.0 19:40:13 10° WNW 19:41:15 18° WNW 19:41:15 18° WNW visible
30 Jan -3.6 18:52:48 10° WNW 18:55:52 65° NNW 18:55:52 65° NNW visible
31 Jan -3.6 18:05:23 10° WNW 18:08:44 57° NNE 18:10:33 24° E visible
31 Jan -1.0 19:42:17 10° WNW 19:43:31 20° W 19:43:31 20° W visible
01 Feb -3.5 18:54:47 10° WNW 18:58:08 61° SSW 18:58:16 60° SSW visible
02 Feb -3.8 18:07:19 10° WNW 18:10:43 86° SSW 18:13:06 18° ESE visible
02 Feb -0.9 19:44:43 10° W 19:46:06 16° WSW 19:46:06 16° WSW visible
03 Feb -1.9 18:56:55 10° W 18:59:52 27° SW 19:01:05 22° S visible
